www.pogodaiklimat.ru

Погода и климат >> Архив погоды >> Россия >> Самарская область >> Сызрань


ПОГОДА в Сызрани

АРХИВ ПОГОДЫ в Сызрани

Время (UTC), дата Ветер
(напр.,м/с)
 
Видим.   Явления Облачность Т
(С)
Тd
(С)
f
(%)
Тe
(С)
Тes
(С)
Комфортность P
(гПа)
Po
(гПа)
Тmin
(С)
Tmax
(С)
R
(мм)
R24
(мм)
S
(см)
21 10.02 штиль 0 20 км ясно -18.6 -21.4 79 -19 -19 по сезону 1027.1 1012.9
00 11.02 ЮВ 1 20 км ясно -18.8 -21.5 79 -22 -22 по сезону 1027.3 1013.1
03 11.02 ЮВ 1 20 км 4/0
[Ci fib]
-18.6 -21.5 78 -21 -21 по сезону 1028.0 1013.8 -20.4 53
06 11.02 ЮВ 2 20 км 4/0
[Ci fib]
-18.0 -20.8 79 -23 -22 прохладно 1028.8 1014.6
09 11.02 ЮВ 2 20 км 5/0
[Ci fib]
-14.2 -18.3 71 -19 -16 по сезону 1028.8 1014.8
12 11.02 ЮВ 2 20 км 3/0
[Ci fib]
-13.4 -18.0 68 -18 -17 прохладно 1028.8 1014.8
15 11.02 ЮВ 2 22 км 3/1 1000 м
[Sc Ci fib]
-15.9 -19.0 77 -21 -21 холодно 1029.9 1015.8 -13.2
18 11.02 ЮВ 1 20 км ясно -17.4 -19.9 81 -20 -20 по сезону 1030.4 1016.2
21 11.02 ЮВ 1 19 км ясно -18.6 -21.4 79 -21 -21 по сезону 1030.7 1016.5
00 12.02 В 1 20 км ясно -19.4 -22.2 78 -22 -22 по сезону 1030.7 1016.4
03 12.02 ЮВ 2 13 км [диам. изморози 1 мм] ясно -20.0 -23.0 77 -26 -26 холодно 1031.0 1016.7 -22.3 53
06 12.02 ЮВ 2 20 км 10/0
[Cs]
-18.7 -21.7 77 -24 -23 холодно 1031.3 1017.0
09 12.02 ЮВ 2 20 км 4/0
[Cs]
-15.6 -18.9 76 -21 -17 прохладно 1031.3 1017.2
12 12.02 ЮВ 2 20 км 10/0
[Cs]
-13.9 -18.2 70 -19 -18 холодно 1031.1 1017.1
15 12.02 ЮВ 2 20 км 10/0
[As trans Cs]
-15.7 -18.5 79 -21 -21 холодно 1031.2 1017.1 -13.8
18 12.02 В 1 19 км 3/0
[Cs]
-19.0 -21.6 80 -22 -22 прохладно 1031.8 1017.6
21 12.02 В 1 20 км 5/0
[As trans]
-17.8 -20.5 79 -21 -21 по сезону 1031.5 1017.3
00 13.02 ЮВ 1 18 км 4/0
[As trans]
-18.3 -21.2 78 -21 -21 по сезону 1030.5 1016.3
03 13.02 ЮВ 2 20 км [диам. изморози 1 мм] 4/0
[Cs]
-19.6 -22.6 77 -25 -25 холодно 1030.5 1016.2 -19.6 53
06 13.02 ЮВ 3 20 км [диам. изморози 3 мм] 10/10 330 м
[St]
-18.3 -21.3 77 -26 -26 холодно 1030.3 1016.0 -19.6
09 13.02 Ю 2 20 км [диам. изморози 3 мм] 10/10 360 м
[St]
-15.0 -17.7 80 -20 -20 прохладно 1029.1 1015.1
12 13.02 Ю 4 10 км слаб. снег 10/10 300 м
[St]
-11.6 -14.0 82 -19 -19 холодно 1027.0 1013.1
15 13.02 Ю 4 14 км слаб. снег 10/10 270 м
[Frnb Ns]
-8.9 -10.9 85 -16 -16 по сезону 1024.8 1011.2 -8.9 0.2
18 13.02 Ю 4
{11}
16 км слаб. снег {метель} 10/10 330 м
[Frnb Ns]
-7.6 -9.6 86 -14 -14 по сезону 1023.9 1010.3
21 13.02 ЮВ 1 15 км слаб. снег {метель} 10/10 330 м
[Frnb Ns]
-7.5 -9.4 86 -10 -10 тепло 1023.3 1009.8
00 14.02 ЮВ 1 18 км {снег, метель} 10/10 480 м
[Sc]
-7.5 -9.4 86 -10 -10 тепло 1021.9 1008.4
03 14.02 ЮВ 2 9000 м слаб. снег 10/10 300 м
[Frnb Ns]
-7.4 -9.2 87 -12 -12 по сезону 1021.0 1007.5 -8.9 1 54
06 14.02 ЮВ 2 1000 м снег 10/10 270 м
[St As op]
-6.2 -7.9 88 -11 -11 тепло 1020.8 1007.3
09 14.02 Ю 2 10 км в посл. час снег 10/10 930 м
[Sc]
-4.0 -6.2 85 -8 -8 тепло 1020.0 1006.7
12 14.02 Ю 2 20 км {снег} 9/9 870 м
[Sc]
-0.9 -4.2 78 -5 -4 тепло 1020.0 1006.8
15 14.02 С 2 14 км {снег} 8/8 900 м
[Sc]
-1.5 -3.6 86 -5 -5 тепло 1021.2 1008.0 -0.8 4
18 14.02 СЗ 1 18 км {снег} 10/10 570 м
[Sc]
-1.5 -6.4 69 -3 -3 тепло 1022.7 1009.5
21 14.02 З 2 17 км 10/10 660 м
[Sc]
-2.1 -5.9 75 -6 -6 тепло 1023.7 1010.4
00 15.02 СЗ 2 17 км 10/10 600 м
[Sc]
-2.9 -7.3 72 -7 -7 тепло 1024.4 1011.1
03 15.02 З 2 16 км 9/9 700 м
[Sc]
-4.6 -9.1 71 -9 -9 тепло 1023.5 1010.1 -4.6 0.6 58
06 15.02 З 1 20 км 9/9 660 м
[Sc]
-6.0 -10.2 72 -8 -8 тепло 1022.7 1009.2 -6.0
09 15.02 ЮЗ 3 20 км 8/4 600 м
[Sc As trans]
-4.1 -9.4 67 -9 -8 по сезону 1019.5 1006.2
12 15.02 ЮЗ 3 20 км 10/10 500 м
[Sc]
-4.1 -8.9 69 -9 -9 по сезону 1014.8 1001.6
15 15.02 ЮЗ 3 12 км слаб. снег 10/10 300 м
[Frnb Ns]
-5.0 -7.0 86 -11 -11 по сезону 1010.8 997.6 -3.0 1
18 15.02 З 4 13 км слаб. снег 10/10 330 м
[Frnb Ns]
-3.5 -5.9 83 -10 -10 тепло 1007.8 994.6
21 15.02 З 5 12 км слаб. снег {метель} 10/10 360 м
[Frnb Ns]
-2.7 -4.7 86 -9 -9 тепло 1005.6 992.5
00 16.02 З 3 15 км {снег, метель} 10/10 570 м
[Sc]
-1.9 -4.4 83 -7 -7 тепло 1004.5 991.5
03 16.02 З 3 18 км 9/9 600 м
[Sc]
-1.8 -3.9 86 -7 -7 тепло 1003.8 990.8 -5.0 1 60
06 16.02 З 3 20 км {снег} 9/8 750 м
[Sc Ac trans]
-0.0 -2.8 81 -5 -4 тепло 1004.3 991.4
09 16.02 З 3 20 км 9/6 600 м
[Sc Ac trans]
+2.2 -2.0 74 -2 -1 тепло 1003.9 991.0
12 16.02 З 2 20 км 10/10 400 м
[St]
+2.8 -2.6 68 0 0 тепло 1003.8 991.0
15 16.02 З 2 16 км слаб. снег 10/10 400 м
[St]
+0.5 -1.3 88 -3 -3 тепло 1004.7 991.8 +3.0 0.0
18 16.02 СЗ 3 18 км {снег} 9/9 750 м
[Sc]
+1.2 -2.5 76 -3 -3 тепло 1006.0 993.1
21 16.02 СЗ 3 20 км 3/0
[Ci fib]
-0.8 -4.8 74 -5 -5 тепло 1006.8 993.8
00 17.02 З 3 20 км 9/9 1000 м
[Sc]
-2.6 -5.4 81 -8 -8 тепло 1007.2 994.1
03 17.02 З 2 21 км 3/0
[Ci fib]
-3.9 -7.2 78 -8 -8 тепло 1005.6 992.5 -3.9 0.0 57
06 17.02 ЮЗ 2 20 км 10/3 1000 м
[Sc Ac trans Ci fib]
-3.9 -7.8 74 -8 -7 тепло 1003.9 990.8 -5.0
09 17.02 ЮЗ 4 20 км 10/3 600 м
[Sc Ac trans Ci fib]
-0.9 -7.2 62 -6 -5 тепло 999.6 986.7
12 17.02 ЮЗ 3 20 км 10/0
[Ac und]
-1.1 -4.8 76 -6 -6 тепло 995.0 982.2
15 17.02 ЮЗ 2 10 км 10/0
[Ac und]
-1.2 -3.7 83 -5 -5 тепло 991.4 978.6 -0.4
18 17.02 З 2 12 км слаб. снег 10/0
[As op]
-0.5 -2.2 88 -4 -4 тепло 988.7 975.9

 

Местоположение метеостанции Сызрань (Самарская область, Россия): широта 53.18 долгота 48.40 высота над уровнем моря 103 м.

В архиве по умолчанию представлена погода в Сызрани за последнюю неделю. Архивные данные за месяц целиком и за предыдущие месяцы, начиная с января 2011 года, Вы можете получить, выбрав интересующий диапазон дат из раскрывающегося списка и нажав кнопку "Ввод!".


*Определитесь, кто Вы:
робот инопланетянин человек

Внимание! Время в таблицах - всемирное. Для получения местного времени необходимо прибавить поправку, которая равна 4 ч.

Смотрите также архив погоды в соседних городах и на ближайших метеорологических станциях:

Погода в Приволжье (Самарская область, Россия) (37 км)
Погода в Новодевичьем (Самарская область, Россия) (55 км)
Погода в Канадее (Ульяновская область, Россия) (59 км)
Погода в Тольятти (Самарская область, Россия) (71 км)
Погода в Безенчуке (Самарская область, Россия) (72 км)
Погода в Хвалынске (Саратовская область, Россия) (79 км)
Погода в Чапаевске (Самарская область, Россия) (91 км)
Погода в Сенгилее (Ульяновская область, Россия) (92 км)
Погода в Аглосе (Самарская область, Россия) (116 км)
Погода в Самаре АМС (Самарская область, Россия) (117 км)

Пояснения к столбцам:

Ветер - указаны скорость ветра в м/с - средняя за 10 мин, порывы в срок и между сроками (в фигурных скобках) и направление, откуда дует ветер: С - северный, СВ - северо-восточный, В - восточный, ЮВ - юго-восточный, Ю - южный, ЮЗ - юго-западный, З - западный, СЗ - северо-западный.
Видимость - горизонтальная дальность видимости в метрах или километрах. При видимости от 1 до 10 км при отсутствии осадков обычно наблюдается дымка, при ухудшении видимости до 1 км и менее - туман. В сухую погоду видимость может ухудшаться дымом, пылью или мглою.
Явления - указаны атмосферные явления, наблюдавшиеся в срок или в последний час перед сроком; фигурными скобками обозначены явления, наблюдавшиеся между сроками (за 1-3 часа до срока); квадратными скобками обозначены град или гололедные отложения с указанием их диаметра в мм.
Облачность - указаны через наклонную черту общая и нижняя облачность в баллах и высота нижней границы облаков в метрах; квадратными скобками обозначены формы облаков: Ci - перистые, Cs - перисто-слоистые, Cc - перисто-кучевые, Ac - высококучевые, As - высокослоистые, Sc - слоисто-кучевые, Ns - слоисто-дождевые, Cu - кучевые, Cb - кучево-дождевые. Подробнее классификацию облаков см. в Атласе облаков (PDF).
T - Температура воздуха - температура, измеренная на высоте 2 м над землей.
Td - Температура точки росы - температура, при понижении до которой содержащийся в воздухе водяной пар достигнет насыщения.
f - Относительная влажность воздуха - влажноcть воздуха, измеренная на высоте 2 м над землей.
Te - Эффективная температура - температура, которую ощущает одетый по сезону человек в тени. Характеристика душности погоды. При расчете учитывается влияние влажности воздуха и скорости ветра на теплоощущения человека.
Tes - Эффективная температура на солнце - температура, которую ощущает человек, с поправкой на солнечный нагрев. Характеристика знойности погоды. Зависит от высоты солнца над горизонтом, облачности и скорости ветра. Ночью, в пасмурную погоду, а также при ветре 12 м/с и более поправка равна нулю.
P - Атмосферное давление - приведенное к уровню моря атмосферное давление.
Po - Атмосферное давление - измеренное на уровне метеостанции атмосферное давление.
Tmin - Минимальная температура - минимум температуры воздуха на высоте 2 м над землей.
Tmax - Максимальная температура - максимум температуры воздуха на высоте 2 м над землей.
R - Количество осадков - Количество выпавших осадков за период времени, мм. При наведении курсора мыши на число - период времени, за который выпало указанное количество осадков.
R24 - Количество осадков - Количество выпавших осадков за 24 часа, мм.
S - Снежный покров - Высота снежного покрова, см. При наведении курсора мыши на число - состояние снежного покрова и степень покрытия местности в баллах.